Погода Кемь-Порт

Погода Кемь-Порт : погода сейчас, прогноз погоды и архив. Всё, что Вы хотите узнать о погоде Кемь-Порт!

Поиск расширенной информации на нашем сайте:

Другие новости

Новости СМИ2

Главная страница сайта

Новости сайта

02.10.2013

Напоминаем, что на нашем новом сайте вы можете получить высокодетализированные прогнозы погоды по пунктам России, СНГ и мира (включающие важные для авиации метеовеличины, такие как направление и скорость ветра, видимость, явления погоды, количество и форма облачности, нижняя и верхняя граница облачности), а также ознакомиться с разнообразными материалами по авиационной метеорологии и подборкой полезных ссылок на эту тему.

Сайт Метеоцентр.Азия посвящён разработке технологий оптимизации авиаметеорологического обслуживания, включая проектирование и перспективное создание нескольких автоматизированных авиаметеорологических систем:
- система выпуска высокодетальных прогностических карт явлений погоды для нижнего воздушного пространства по России и ближнему зарубежью;
- система верификации прогнозов TAF (выпускаемых синоптиками официальных АМСГ РФ и ближнего зарубежья) и AUTOTAF (выпускаемых сайтом Метеоцентр.Азия) - выявление ошибок, онлайн-сопоставление с фактической погодой METAR, автоматическое внесение коррективов в прогнозы при резком отклонении фактической погоды от прогноза, подсчёт оправдываемости прогнозов по элементам и в целом;
- система обработки, анализа и отображения авиаметеорологической информации для применения провайдерами метеорологической информации.


Погода Кемь-Порт - сегодня

Время (UTC), дата Ветер
(°,м/с) 
Видим.   Явления Облачность Т
(°С)
Тd
(°С)
f(%) Тe
(°С)
Pmin
(гПа)
dP
(гПа)
Po
(мм)
O2
(г/м3)
Тmin Tmax R s Состояние
почвы
00 21.03.17 170 (Ю) 20000 м    ясно 
-5.9 -6.4 96 -7  1006.4  -0.4  754  311           
03 21.03.17 170 (Ю) 4000 м  слаб. ливневой снег  10/10 200 м кучево-дожд. 
[Cb cap]
-3.9 -4.4 96 -5  1006.3  -0.2  754  309  -9.2    0.3     
06 21.03.17 180 (Ю) 4000 м  дымка{ливн. осадки}  10/10 240 м 
[St]
-3 -3.4 97 -3  1006.3  0.1  754  308  -9.2    0.3  10  равномерный
сухой снег
100% 
09 21.03.17 170 (Ю) 4000 м  слаб. ливневой снег  10/10 420 м кучево-дожд. 
[Cb cap]
-0.3 -1.5 92 -1  1006  -0.4  754  304           
12 21.03.17 180 (Ю) н/о    н/о 
+2 -0.2 85 +1  1005.4  753  301           
15 21.03.17 140 (ЮВ) 20000 м    9/1 300 м средняя 
[Sc|Ac As]
+0.9 -0.8 88 1004.9  -0.4  753  302      0.5     
18 21.03.17 140 (ЮВ) н/о    н/о 
+0.4 -3.4 76 -2  1004.8  753  303           
21 21.03.17 160 (Ю) 20000 м    ясно 
-2.3 -4.2 87 -3  1004.2  -0.6  752  306           
00 22.03.17 160 (Ю) 20000 м    ясно 
-3.1 -4.1 93 -6  1002.7  -1.6  751  307           
03 22.03.17 130 (ЮВ) н/о    н/о 
-1.4 -2.4 93 -6  1000.2  -2.4  749  304  -3.3         
06 22.03.17 150 (ЮВ) 20000 м    10/10 300 м 
[Frnb|Ns]
-0.6 -1.5 94 -2  998.7  -1.4  748  302  -3.5      равномерный
сухой снег
100% 
09 22.03.17 170 (Ю) 20000 м  {ливн. осадки}  10/0 средняя 
[Ac As]
+1.5 -0.5 87 -1  997.7  -1  748  300           
12 22.03.17 190 (Ю) 20000 м  {ливн. осадки}  10/0 средняя 
[Ac As]
+2.2 +0.9 91 996.7  -1  747  298           
15 22.03.17 200 (Ю) 20000 м  {ливн. осадки}  9/9 300 м 
[Sc]
+2.8 +1 88 +1  996.3  -0.4  747  298      0.5     
18 22.03.17 200 (Ю) 10 км  слаб. ливневой дождь  10/10 300 м кучево-дожд. 
[Cb cap]
+1.7 +0.2 90 996.7  0.4  747  299    +4  0.6     
21 22.03.17 210 (ЮЗ) 10 км  {ливн. осадки}  10/10 480 м 
[Sc]
+1.6 -0.1 88 -1  996.8  0.1  747  299           
00 23.03.17 210 (ЮЗ) 20000 м  {ливн. осадки}  3/3 300 м 
[Sc]
+1.4 -0.4 88 -1  997.5  0.7  747  300           
03 23.03.17 220 (ЮЗ) н/о    н/о 
+0.8 -0.8 89 -2  997.3  0.7  747  300  +0.8         
06 23.03.17 220 (ЮЗ) 4000 м  слаб. ливневой снег  10/10 800 м кучево-дожд. 
[Cb cap]
+0.7 +0.1 96 -2  997.4  0.1  747  300  +0.4    0.1  равномерный
мокрый или
старый снег
100% 
09 23.03.17 250 (З) 8-14{14}  20000 м  {ливн. осадки}  9/9 800 м кучево-дожд. 
[Cb calv]
+3 -0.5 78 -1  998.1  0.7  748  298           
12 23.03.17 260 (З) 9-14{16}  20000 м  {ливн. осадки}  8/8 600 м 
[Sc]
+2.8 -4.5 59 -1  1000.2  749  299           
15 23.03.17 250 (З) 6-13{16}  20000 м    8/8 600 м 
[Sc]
+2.1 -5.3 58 -1  1001.9  1.7  751  301      0.0     
18 23.03.17 250 (З) 6-11{14}  20000 м    4/4 600 м 
[Sc]
+0.7 -6.8 57 -3  1003.2  1.3  752  303    +4  0.0     
21 23.03.17 240 (ЮЗ) 5{11}  20000 м    ясно 
-0.7 -5.9 68 -4  1003.5  0.3  752  304           
00 24.03.17 240 (ЮЗ) 20000 м    ясно 
-1.6 -6.3 70 -5  1003.4  0.1  752  305           
Время (UTC), дата Ветер
(°,м/с) 
Видим.   Явления Облачность Т
(°С)
Тd
(°С)
f(%) Тe
(°С)
Pmin
(гПа)
dP
(гПа)
Po
(мм)
O2
(г/м3)
Тmin Tmax R s Состояние
почвы

Для получения пояснительной информации подведите курсор к названию столбца.

ПОГОДА Кемь-Порт - архив

Всё, что Вы хотите узнать о погоде Кемь-Порт - удобно и подробно!

Выберите нужную дату (начиная с 1 января 2015* года) и нажмите кнопку "Найти".
Будут отображены архивные сводки погоды по пункту Кемь-Порт, начиная с указанной даты.


Отображать данные в формате CSV (для использования в таблицах Excel)


Внимание! Наш архив погоды предназначен исключительно для личного некоммерческого использования в познавательных целях. Если Вам необходимы официальные справки о состоянии погоды (для производственных, юридических, коммерческих и т.п. целей), обращайтесь в органы Росгидромета.

*Примечание: данная дата относится к архиву по метеостанциям СССР (Россия, СНГ, Балтия).
Архив по метеостанциям Зарубежной Европы и Азии (кроме Китая) хранится 10 дней, по другим регионам земного шара (Китай, Африка, Америка, Австралия, Океания) - 1 день.

Кемь-Порт - район местоположения метеостанции


Название, широта, долгота, высота метеостанции:
Кемь-Порт 64.98°ш. 34.80°д. 8 м над ур. моря [Российская Федерация]

Дополнительная информация

В oтличие oт бoльшинства пoгoдных сайтoв мы публикуем пoдрoбную метеoинфoрмацию в детальнoм прoфессиoнальнoм фoрмате.

Характеристики температуры и влажнoсти вoздуха измеряются на высoте 2 м в тени вдали oт зданий и деревьев.
Скoрoсть ветра измеряется на высoте 10 м (на урoвне рoста челoвека скoрoсть ветра ниже в 1.5-2 раза). Если метеoстанция нахoдится в гoрoде или в лесу, тo скoрoсть ветра занижена на 2-4 м/с пo сравнению с oткрытым местoм. Скoрoсть ветра над акватoриями крупных рек и oзёр, а также на вершинах хoлмoв на 2-5 м/с выше, чем в oбычных услoвиях.
Атмoсфернoе давление в разных тoчках местнoсти мoжет значительнo oтличаться oт давления на метеoстанции, в зависимoсти oт услoвий рельефа (при пoдъёме на 10 м давление пoнижается примернo на 1 мм рт.ст.).